FENGYUN 1C DEB, 30139

Orbit data source: Space-Track

FENGYUN 1C DEB, 30139 is space debris in SSO originally from a launch on Mon, 10 May 1999 UTC launched from the Taiyaun Space Center, China (TSC). Fengyun 1C debris stems from the Chinese weather satellite Fengyun-1C, which was intentionally destroyed by a Chinese anti-satellite missile in 2007. This event dramatically increased the amount of space debris, with thousands of trackable fragments posing hazards to satellites and human spaceflight. The Fengyun 1C debris cloud has become a focal point in discussions about space sustainability and the need for international regulations to prevent the creation of new debris.

Loading next visibility...
Identifier
30139, 1999-025SU
Orbit
SSO
Country
Flag of CNCN / PRC
Related business
Manufacturer
Unknown
Mission
Spacecraft
Bus & Motor
Unknown
Mass
Unknown
Launch date (UTC)
1999-05-10 (27 years ago)
Launch vehicle
Unknown
Launch site
Taiyaun Space Center, China (TSC)
Object type
Payload
Rocket body
Debris
Shape & HBR
Unknown shape, 0.1 m
Radar Cross Section
Small (<0.1 m²)

Expand to show TLE details & history
Last TLE update: 15 hours ago

TLE from 15 hours ago
0 FENGYUN 1C DEB
1 30139U 99025SU  26062.81094197  .00001940  00000-0  11593-2 0  9991
2 30139  98.3650 265.0079 0131014  60.4824  66.4534 14.04001499973876
Epoch: 2026-03-03T19:27Z
TLE epoch observation values (Epoch: 2026-03-03T19:27:45.386Z)
Latitude
51.0142°
Longitude
1.89556°
Altitude
851.193 km
Speed
7.451 km/s
True Right ascension
06h 21m 40s
True Declination
50° 50' 53"
Sunlit
Object was in daylight at epoch
Visualization orbit readout
Latitude
Unknown
Longitude
Unknown
Altitude
Unknown
Speed
Unknown
Apparent Right ascension
Unknown
Apparent Declination
Unknown
Sunlit
N/A
Visualization observer readout
Local Sidereal Time
14:15:36
Azimuth
Unknown
Elevation
Unknown
Doppler factor
Unknown
Orbital elements
Apogee altitude
972.189 km
Perigee altitude
782.081 km
Semi-major axis
7,255.272 km
Eccentricity
0.0131
Inclination
98.365°
RAAN
265.0079°
Arg. of periapsis
60.4824°
True anomaly
67.83863°
Mean anomaly
66.4534°
Eccentric anomaly
67.14512°
Mean motion
3.51207 °/min
Orbital period
102.5 mins
BSTAR
0.0011593
Loading maneuver chart data...
Computing Atmospheric mass density...
Loading historical data...
Loading historical data...
Loading historical data...
Loading historical data...
Loading historical data...
Loading historical data...
Loading historical data...

Documentation

Showing up to 5 results
|